Flag for U.S.A. Weather past 2 weeks in Glendale, California, U.S.A.

Now
64 °F

Clear.


Feels Like: 64 °F
Forecast: 63 / 83 °F
Wind: 6 mph from Southeast

Location: Burbank-Glendale-Pasadena Airport

Current Time: Jul 4, 2015 at 5:18:16 AM

Latest Report: Jul 4, 2015 at 4:53 AM


Visibility: 9 mi

Pressure: 29.83 "Hg

Humidity: 81%

Dew point: 58 °F

Location of GlendaleLocation

Historic Weather in Glendale — Graph

°F

Glendale temperature yesterday

Maximum temperature yesterday: 87 °F (at 1:53 PM)
Minimum temperature yesterday: 65 °F (at 6:53 AM)
Average temperature yesterday: 74 °F

Past Weeks' High & Low Weather Summary

 TemperatureHumidityPressure
High97 °F (Jun 29, 2:53 PM)85% (Jun 21, 5:53 AM)29.99 "Hg (Jun 21, 5:53 AM)
Low63 °F (Jun 26, 5:53 AM)14% (Jun 30, 7:53 PM)29.75 "Hg (Jun 20, 2:53 AM)
Average77 °F50%29.86 "Hg
* Reported Jun 19 3:53 AM — Jul 4 3:53 AM, Glendale, Weather by CustomWeather, © 2015

Note: Actual official high and low records may vary slightly from our data, if they occured in-between our weather recording intervals... More about our weather records

Advertising

Glendale weather history for previous 24 hours

 ConditionsComfort  
Time TempWeatherWind HumidityBarometerVisibility
3:53 AM
Sat, Jul 4
64 °FClear.5 mph84%29.83 "Hg9 mi
2:53 AM64 °FClear.3 mph84%29.83 "Hg9 mi
1:53 AM65 °FClear.6 mph81%29.84 "Hg9 mi
12:53 AM66 °FClear.7 mph78%29.84 "Hg10 mi
11:53 PM
Fri, Jul 3
66 °FClear.6 mph78%29.85 "Hg10 mi
10:53 PM67 °FClear.9 mph76%29.85 "Hg10 mi
9:53 PM69 °FClear.9 mph70%29.83 "Hg10 mi
8:53 PM71 °FSunny.10 mph66%29.81 "Hg10 mi
7:53 PM77 °FSunny.7 mph54%29.79 "Hg10 mi
6:53 PM78 °FSunny.8 mph52%29.79 "Hg10 mi
5:53 PM81 °FSunny.9 mph47%29.79 "Hg10 mi
4:53 PM85 °FSunny.10 mph39%29.80 "Hg10 mi
3:53 PM86 °FSunny.8 mph37%29.81 "Hg10 mi
2:53 PM87 °FSunny.12 mph39%29.83 "Hg10 mi
1:53 PM87 °FSunny.12 mph39%29.85 "Hg10 mi
12:53 PM84 °FSunny.7 mph45%29.87 "Hg10 mi
11:53 AM80 °FSunny.8 mph51%29.90 "Hg10 mi
10:53 AM79 °FSunny.7 mph48%29.92 "Hg10 mi
9:53 AM76 °FSunny.10 mph54%29.93 "Hg10 mi
8:53 AM72 °FSunny.8 mph61%29.93 "Hg10 mi
7:53 AM68 °FSunny.6 mph76%29.92 "Hg10 mi
6:53 AM65 °FSunny.No wind85%29.92 "Hg10 mi
5:53 AM66 °FClear.6 mph81%29.91 "Hg10 mi
Weather by CustomWeather, © 2015

See weather overviewHow to use our weather pages